Погода в Тринидаде

Тринидад и Тобаго     10°22′26″N   61°15′42″W
темп.,
°C
ветер,
м/с
пор.,
м/с
влажн.,
%
обл.,
%
осадки,
мм/ч
давл.,
гПа
погр.,
м
9 августа, вт
вт923:00+24св159897 0.0 1012120
02:00+23св149810 0.1 1010111
05:00+23св119921 2.4 101134
08:00+26в159221 6.1 1013271
11:00+30вюв356136 1.4 10141118
14:00+32вюв3454100 1.6 10111736
17:00+29в3469100 0.3 1011981
20:00+24всв159276 0.3 1013114
10 августа, ср
ср1023:00+24всв1294100 0.0 101440
02:00+24всв159490 0.0 1012108
05:00+24в169569 4.0 1012141
08:00+27вюв2785100 7.0 1014612
11:00+30вюв3565100 1.2 10141290
14:00+31вюв356293 2.0 10121439
17:00+27в269011 1.8 1012630
20:00+24всв14956 1.9 1014111
11 августа, чт
чт1123:00+23в18986 1.8 1014199
02:00+23всв1198100 6.9 101224
05:00+23всв119871 7.1 101333
08:00+26в269330 14.5 1014306
11:00+30в347016 2.1 10141154
14:00+28в24888 5.4 1012727
17:00+26всв24920 3.0 1012325
20:00+24св27984 4.3 1013190
12 августа, пт
пт1223:00+23св299811 2.9 1014252
02:00+23св129969 7.3 101256
05:00+23св1297100 0.9 101346
08:00+26всв159093 0.9 1014253
11:00+29всв237262 0.9 10141066
14:00+29всв238018 3.6 1012942
17:00+27всв24911 1.9 1012223
20:00+24св11974 2.3 101222
13 августа, сб
сб1323:00+23ссв11975 0.0 101321
02:00+23ссв119899 0.0 101226
05:00+23всв119716 0.0 101220
08:00+26всв13899 0.0 1014226
11:00+29вюв237342 1.2 10131142
14:00+29юв237618 3.2 10121073
17:00+27в258756 1.3 1011337
20:00+24всв16957 1.4 1012125